When you browse on this site, cookies collect data to enhance your experience and personalize the content and advertising you see.
Visit our Privacy Policy to learn more. By continuing to use the site, you agree to this use of cookies and data.
  • In Austria
  • List of Countries
  • For 7 days
  • Water Temperature
  • Weather Map
  • News
  • Weather Widgets
  • user-avatar
    Login

    Hourly Weather Redigerovo

    Today, 18 September, Wednesday

    Time Temperature Precipitation Wind Pressure Humidity
    00:00 +8°C° 0.9 mm 4 mps 739 mmHg 85%
    01:00 +7°C° 0.9 mm 4 mps 738 mmHg 88%
    02:00 +7°C° 0 mm 4 mps 738 mmHg 92%
    03:00 +6°C° 1.5 mm 5 mps 738 mmHg 91%
    04:00 +6°C° 1.5 mm 5 mps 738 mmHg 91%
    05:00 +5°C° 1.5 mm 6 mps 738 mmHg 90%
    06:00 +5°C° 0.2 mm 6 mps 738 mmHg 89%
    07:00 +5°C° 0.2 mm 6 mps 739 mmHg 88%
    08:00 +5°C° 0.2 mm 7 mps 739 mmHg 87%
    09:00 +5°C° 0.1 mm 6 mps 740 mmHg 84%
    10:00 +7°C° 0.1 mm 6 mps 740 mmHg 81%
    11:00 +8°C° 0.1 mm 6 mps 741 mmHg 79%
    12:00 +8°C° 0.1 mm 6 mps 741 mmHg 77%
    13:00 +8°C° 0.1 mm 6 mps 741 mmHg 76%
    14:00 +9°C° 0.1 mm 7 mps 742 mmHg 74%
    15:00 +9°C° 0.1 mm 6 mps 742 mmHg 73%
    16:00 +9°C° 0.1 mm 5 mps 743 mmHg 72%
    17:00 +10°C° 0.1 mm 5 mps 744 mmHg 71%
    18:00 +9°C° 0 mm 5 mps 744 mmHg 75%
    19:00 +8°C° 0 mm 5 mps 745 mmHg 79%
    20:00 +7°C° 0 mm 5 mps 745 mmHg 83%
    21:00 +7°C° 0.1 mm 5 mps 746 mmHg 83%
    22:00 +7°C° 0.1 mm 5 mps 746 mmHg 84%
    23:00 +7°C° 0.1 mm 5 mps 746 mmHg 84%

    Tomorrow, 19 September, Thursday

    Time Temperature Precipitation Wind Pressure Humidity
    00:00 +7°C° 0 mm 5 mps 747 mmHg 86%
    01:00 +7°C° 0 mm 5 mps 747 mmHg 88%
    02:00 +6°C° 0 mm 5 mps 747 mmHg 90%
    03:00 +7°C° 0 mm 5 mps 748 mmHg 89%
    04:00 +7°C° 0 mm 5 mps 748 mmHg 88%
    05:00 +7°C° 0 mm 5 mps 748 mmHg 88%
    06:00 +7°C° 0 mm 5 mps 748 mmHg 86%
    07:00 +7°C° 0 mm 5 mps 749 mmHg 84%
    08:00 +7°C° 0 mm 5 mps 749 mmHg 83%
    09:00 +8°C° 0 mm 5 mps 749 mmHg 81%
    10:00 +8°C° 0 mm 4 mps 750 mmHg 80%
    11:00 +8°C° 0 mm 4 mps 750 mmHg 78%
    12:00 +10°C° 0 mm 4 mps 750 mmHg 75%
    13:00 +11°C° 0 mm 4 mps 750 mmHg 71%
    14:00 +12°C° 0 mm 4 mps 750 mmHg 67%
    15:00 +12°C° 0 mm 3 mps 750 mmHg 67%
    16:00 +12°C° 0 mm 3 mps 750 mmHg 66%
    17:00 +13°C° 0 mm 2 mps 751 mmHg 65%
    18:00 +10°C° 0.1 mm 2 mps 751 mmHg 72%
    19:00 +9°C° 0.1 mm 2 mps 751 mmHg 79%
    20:00 +8°C° 0.1 mm 2 mps 751 mmHg 86%
    21:00 +7°C° 0 mm 2 mps 751 mmHg 88%
    22:00 +7°C° 0 mm 3 mps 751 mmHg 90%
    23:00 +7°C° 0 mm 3 mps 751 mmHg 91%

    Day after tomorrow, 20 September, Friday

    Time Temperature Precipitation Wind Pressure Humidity
    00:00 +5°C° 0 mm 3 mps 751 mmHg 92%
    01:00 +5°C° 0 mm 3 mps 751 mmHg 93%
    02:00 +5°C° 0 mm 3 mps 751 mmHg 94%
    03:00 +5°C° 0.1 mm 4 mps 751 mmHg 93%
    04:00 +5°C° 0.1 mm 4 mps 751 mmHg 92%
    05:00 +6°C° 0.1 mm 4 mps 751 mmHg 91%
    06:00 +6°C° 0 mm 4 mps 751 mmHg 90%
    07:00 +6°C° 0 mm 5 mps 751 mmHg 88%
    08:00 +6°C° 0 mm 5 mps 751 mmHg 87%
    09:00 +6°C° 0 mm 5 mps 752 mmHg 80%
    10:00 +7°C° 0 mm 6 mps 752 mmHg 74%
    11:00 +8°C° 0 mm 6 mps 753 mmHg 67%
    12:00 +9°C° 0.3 mm 6 mps 752 mmHg 63%
    13:00 +9°C° 0.3 mm 6 mps 752 mmHg 58%
    14:00 +10°C° 0.3 mm 6 mps 752 mmHg 54%
    15:00 +10°C° 0.1 mm 6 mps 753 mmHg 56%
    16:00 +9°C° 0.1 mm 5 mps 753 mmHg 58%
    17:00 +10°C° 0.1 mm 4 mps 753 mmHg 61%
    18:00 +7°C° 0 mm 4 mps 753 mmHg 66%
    19:00 +7°C° 0 mm 3 mps 753 mmHg 72%
    20:00 +4°C° 0 mm 3 mps 754 mmHg 78%
    21:00 +4°C° 0 mm 3 mps 754 mmHg 80%
    22:00 +4°C° 0 mm 2 mps 754 mmHg 82%
    23:00 +4°C° 0 mm 2 mps 755 mmHg 84%

    21 September, Saturday

    Time Temperature Precipitation Wind Pressure Humidity
    00:00 +4°C° 0 mm 2 mps 755 mmHg 85%
    01:00 +3°C° 0 mm 2 mps 755 mmHg 86%
    02:00 +3°C° 0 mm 2 mps 755 mmHg 87%
    03:00 +3°C° 0 mm 2 mps 755 mmHg 87%
    04:00 +3°C° 0 mm 2 mps 755 mmHg 86%
    05:00 +3°C° 0 mm 2 mps 755 mmHg 86%
    06:00 +4°C° 0 mm 2 mps 755 mmHg 80%
    07:00 +5°C° 0 mm 2 mps 755 mmHg 75%
    08:00 +6°C° 0 mm 2 mps 755 mmHg 70%
    09:00 +8°C° 0 mm 3 mps 755 mmHg 68%
    10:00 +9°C° 0 mm 3 mps 754 mmHg 66%
    11:00 +10°C° 0 mm 4 mps 754 mmHg 65%
    12:00 +10°C° 0.1 mm 4 mps 754 mmHg 69%
    13:00 +10°C° 0.1 mm 4 mps 754 mmHg 74%
    14:00 +9°C° 0.1 mm 5 mps 753 mmHg 79%
    15:00 +10°C° 0 mm 5 mps 753 mmHg 77%
    16:00 +12°C° 0 mm 4 mps 753 mmHg 76%
    17:00 +13°C° 0 mm 4 mps 752 mmHg 75%
    18:00 +13°C° 0 mm 4 mps 752 mmHg 76%
    19:00 +13°C° 0 mm 4 mps 752 mmHg 77%
    20:00 +13°C° 0 mm 4 mps 752 mmHg 78%
    21:00 +12°C° 0 mm 4 mps 752 mmHg 80%
    22:00 +12°C° 0 mm 5 mps 752 mmHg 83%
    23:00 +10°C° 0 mm 5 mps 752 mmHg 86%

    22 September, Sunday

    Time Temperature Precipitation Wind Pressure Humidity
    00:00 +10°C° 0 mm 5 mps 752 mmHg 87%
    01:00 +9°C° 0 mm 5 mps 752 mmHg 88%
    02:00 +9°C° 0 mm 5 mps 752 mmHg 89%
    03:00 +9°C° 0 mm 5 mps 751 mmHg 90%
    04:00 +8°C° 0 mm 5 mps 751 mmHg 91%
    05:00 +8°C° 0 mm 5 mps 751 mmHg 91%
    06:00 +9°C° 0 mm 5 mps 751 mmHg 89%
    07:00 +9°C° 0 mm 5 mps 751 mmHg 87%
    08:00 +11°C° 0 mm 4 mps 751 mmHg 84%
    09:00 +12°C° 0 mm 4 mps 751 mmHg 81%
    10:00 +13°C° 0 mm 4 mps 751 mmHg 77%
    11:00 +14°C° 0 mm 4 mps 751 mmHg 73%
    12:00 +17°C° 0 mm 3 mps 751 mmHg 69%
    13:00 +18°C° 0 mm 3 mps 751 mmHg 64%
    14:00 +19°C° 0 mm 3 mps 751 mmHg 59%
    15:00 +18°C° 0 mm 2 mps 751 mmHg 62%
    16:00 +18°C° 0 mm 2 mps 751 mmHg 65%
    17:00 +19°C° 0 mm 1 mps 751 mmHg 69%
    18:00 +16°C° 0 mm 1 mps 751 mmHg 73%
    19:00 +14°C° 0 mm 2 mps 751 mmHg 78%
    20:00 +13°C° 0 mm 2 mps 751 mmHg 82%
    21:00 +12°C° 0 mm 2 mps 751 mmHg 81%
    22:00 +11°C° 0 mm 3 mps 751 mmHg 79%
    23:00 +10°C° 0 mm 3 mps 751 mmHg 77%

    23 September, Monday

    Time Temperature Precipitation Wind Pressure Humidity
    00:00 +10°C° 0 mm 3 mps 751 mmHg 73%
    01:00 +10°C° 0 mm 3 mps 751 mmHg 69%
    02:00 +10°C° 0 mm 3 mps 751 mmHg 65%
    03:00 +9°C° 0 mm 3 mps 751 mmHg 66%
    04:00 +9°C° 0 mm 3 mps 750 mmHg 66%
    05:00 +8°C° 0 mm 3 mps 750 mmHg 67%
    06:00 +7°C° 0 mm 4 mps 750 mmHg 64%
    07:00 +8°C° 0 mm 4 mps 750 mmHg 62%
    08:00 +8°C° 0 mm 4 mps 749 mmHg 60%
    09:00 +11°C° 0 mm 4 mps 749 mmHg 58%
    10:00 +12°C° 0 mm 4 mps 749 mmHg 57%
    11:00 +13°C° 0 mm 4 mps 749 mmHg 55%
    12:00 +14°C° 0 mm 4 mps 749 mmHg 55%
    13:00 +14°C° 0 mm 4 mps 748 mmHg 55%
    14:00 +14°C° 0 mm 4 mps 747 mmHg 55%
    15:00 +14°C° 0 mm 4 mps 747 mmHg 56%
    16:00 +14°C° 0 mm 4 mps 747 mmHg 58%
    17:00 +14°C° 0 mm 3 mps 747 mmHg 59%
    18:00 +12°C° 0 mm 3 mps 747 mmHg 61%
    19:00 +11°C° 0 mm 3 mps 747 mmHg 63%
    20:00 +9°C° 0 mm 3 mps 747 mmHg 65%
    21:00 +8°C° 0 mm 3 mps 747 mmHg 65%
    22:00 +8°C° 0 mm 3 mps 747 mmHg 65%
    23:00 +7°C° 0 mm 3 mps 747 mmHg 64%
    Show more